TimeEDT,TemperatureF,Dew PointF,Humidity,Sea Level PressureIn,VisibilityMPH,Wind Direction,Wind SpeedMPH,Gust SpeedMPH,PrecipitationIn,Events,Conditions,WindDirDegrees,DateUTC
12:53 AM,36.0,23.0,59,30.31,10.0,NNE,4.6,-,N/A,,Clear,20,2013-03-28 04:53:00
1:53 AM,34.0,23.0,64,30.30,10.0,Calm,Calm,-,N/A,,Clear,0,2013-03-28 05:53:00
2:53 AM,33.1,24.1,70,30.30,10.0,Calm,Calm,-,N/A,,Clear,0,2013-03-28 06:53:00
3:53 AM,30.9,24.1,76,30.30,10.0,Calm,Calm,-,N/A,,Clear,0,2013-03-28 07:53:00
4:53 AM,30.0,24.1,79,30.30,10.0,Calm,Calm,-,N/A,,Clear,0,2013-03-28 08:53:00
5:53 AM,28.9,24.1,82,30.31,10.0,Calm,Calm,-,N/A,,Clear,0,2013-03-28 09:53:00
6:53 AM,28.0,24.1,85,30.32,10.0,Calm,Calm,-,N/A,,Clear,0,2013-03-28 10:53:00
7:53 AM,28.0,24.1,85,30.34,10.0,Calm,Calm,-,N/A,,Clear,0,2013-03-28 11:53:00
8:53 AM,32.0,26.1,79,30.36,10.0,Calm,Calm,-,N/A,,Clear,0,2013-03-28 12:53:00
9:53 AM,37.0,28.9,73,30.37,10.0,Calm,Calm,-,N/A,,Clear,0,2013-03-28 13:53:00
10:53 AM,44.1,26.1,49,30.38,10.0,Calm,Calm,-,N/A,,Clear,0,2013-03-28 14:53:00
11:53 AM,46.0,21.0,37,30.37,10.0,Calm,Calm,-,N/A,,Partly Cloudy,0,2013-03-28 15:53:00
12:53 PM,48.9,21.0,33,30.35,10.0,WSW,8.1,-,N/A,,Clear,240,2013-03-28 16:53:00
1:53 PM,48.9,21.0,33,30.34,10.0,SSW,4.6,-,N/A,,Clear,210,2013-03-28 17:53:00
2:53 PM,52.0,19.9,28,30.30,10.0,Variable,4.6,-,N/A,,Clear,0,2013-03-28 18:53:00
3:53 PM,54.0,18.0,24,30.28,10.0,West,5.8,-,N/A,,Partly Cloudy,280,2013-03-28 19:53:00
4:53 PM,55.9,17.1,22,30.26,10.0,Variable,3.5,-,N/A,,Clear,0,2013-03-28 20:53:00
5:53 PM,55.9,16.0,21,30.25,10.0,WSW,3.5,-,N/A,,Partly Cloudy,250,2013-03-28 21:53:00
6:53 PM,57.0,15.1,19,30.25,10.0,North,3.5,-,N/A,,Partly Cloudy,10,2013-03-28 22:53:00
7:53 PM,52.0,18.0,26,30.27,10.0,NNW,3.5,-,N/A,,Clear,330,2013-03-28 23:53:00
8:53 PM,50.0,14.0,24,30.29,10.0,North,3.5,-,N/A,,Clear,350,2013-03-29 00:53:00
9:53 PM,48.0,15.1,27,30.30,10.0,North,6.9,-,N/A,,Clear,350,2013-03-29 01:53:00
10:53 PM,48.0,12.9,24,30.31,10.0,North,3.5,-,N/A,,Clear,350,2013-03-29 02:53:00
11:53 PM,39.9,19.9,45,30.32,10.0,Calm,Calm,-,N/A,,Clear,0,2013-03-29 03:53:00